Knoxville, IA

10:02 AM CST on January 19, 2018 (GMT -0600)
Knoxville Municipal

Weather History for KOXV - March, 2013

Change the Weather History Date:

Sunday, March 10, 2013

  Actual Average Record
Temperature  
Mean Temperature 38 °F -  
Max Temperature 44 °F 47 °F 72 °F (1955)
Min Temperature 32 °F 27 °F 3 °F (1998)
Degree Days  
Heating Degree Days 27    
Moisture  
Dew Point 33 °F    
Average Humidity 87    
Maximum Humidity 93    
Minimum Humidity 81    
Precipitation  
Precipitation 0.54 in - - ()
Sea Level Pressure  
Sea Level Pressure 29.67 in    
Wind  
Wind Speed 6 mph (NNW)    
Max Wind Speed 13 mph    
Max Gust Speed 18 mph    
Visibility 5 miles    
Events Fog , Rain    
Averages and records for this station are not official NWS values.
T = Trace of Precipitation, MM = Missing Value Source: NWS Daily Summary

Daily Weather History Graph

Daily Weather History Graph

Search for Another Location

Airport or City:

Trip Planner

Search our weather history database for the weather conditions in past years. The results will help you decide how hot, cold, wet, or windy it might be!

Date:

Astronomy

Mar. 10, 2013 Rise Set
Actual Time 7:31 AM CDT 7:13 PM CDT
Civil Twilight 7:04 AM CDT 7:41 PM CDT
Nautical Twilight 6:32 AM CDT 8:13 PM CDT
Astronomical Twilight 6:00 AM CDT 8:45 PM CDT
Moon 6:32 AM CDT (3/10) 6:22 PM CDT (3/10)
Length of Visible Light 12h 36m
Length of Day
11h 41m
Waning Crescent, 2% of the Moon is Illuminated
Mar 10
Waning Crescent
Mar 11
New
Mar 19
First Quarter
Mar 27
Full
Apr 2
Last Quarter

Hourly Weather History & Observations

Time (CDT) Temp. Windchill Dew Point Humidity Pressure Visibility Wind Dir Wind Speed Gust Speed Precip Events Conditions
12:15 AM 44.6 °F - 39.2 °F 81% 29.67 in 1.8 mi Calm Calm - N/A   Overcast
12:35 AM 42.8 °F 41.1 °F 39.2 °F 87% 29.66 in 0.5 mi NE 3.5 mph - N/A Rain Light Rain
12:55 AM 42.8 °F 39.3 °F 39.2 °F 87% 29.68 in 0.2 mi NW 5.8 mph - N/A Rain Light Rain
1:15 AM 42.8 °F - 37.4 °F 81% 29.68 in 0.5 mi Calm Calm - 0.10 in Rain Heavy Rain
1:35 AM 42.8 °F - 39.2 °F 87% 29.66 in 0.5 mi Calm Calm - 0.23 in Rain Heavy Rain
1:55 AM 42.8 °F 39.3 °F 39.2 °F 87% 29.65 in 0.5 mi ENE 5.8 mph - 0.29 in Rain Rain
3:15 AM 42.8 °F 41.1 °F 39.2 °F 87% 29.63 in 0.2 mi NNE 3.5 mph - 0.01 in Rain Rain
3:35 AM 42.8 °F 40.1 °F 39.2 °F 87% 29.61 in 0.2 mi NE 4.6 mph - 0.01 in Fog Fog
3:55 AM 42.8 °F - 37.4 °F 81% 29.61 in 0.2 mi Calm Calm - 0.01 in Rain Rain
4:15 AM 41.0 °F - 37.4 °F 87% 29.62 in 0.2 mi Calm Calm - N/A Fog Fog
4:35 AM 39.2 °F - 35.6 °F 87% 29.62 in 0.2 mi Calm Calm - N/A Fog Fog
4:55 AM 39.2 °F 33.6 °F 35.6 °F 87% 29.64 in 0.2 mi NW 8.1 mph - N/A Fog Fog
5:15 AM 39.2 °F 33.6 °F 35.6 °F 87% 29.65 in 0.2 mi WNW 8.1 mph - N/A Fog Fog
5:35 AM 39.2 °F 35.9 °F 35.6 °F 87% 29.64 in 0.2 mi NNW 4.6 mph - N/A Rain Light Rain
5:55 AM 39.2 °F 34.2 °F 35.6 °F 87% 29.62 in 0.8 mi North 6.9 mph - N/A   Overcast
6:15 AM 39.2 °F 33.6 °F 35.6 °F 87% 29.65 in 0.8 mi NW 8.1 mph - N/A   Overcast
7:15 AM 37.4 °F 29.3 °F 33.8 °F 87% 29.67 in 5.0 mi NNW 12.7 mph - N/A   Overcast
7:35 AM 35.6 °F 29.2 °F 33.8 °F 93% 29.68 in 7.0 mi North 8.1 mph - N/A   Overcast
7:55 AM 35.6 °F 28.0 °F 33.8 °F 93% 29.68 in 7.0 mi NNW 10.4 mph - N/A   Overcast
8:15 AM 35.6 °F 27.5 °F 32.0 °F 87% 29.67 in 4.0 mi NNW 11.5 mph - N/A   Overcast
8:35 AM 35.6 °F 28.0 °F 32.0 °F 87% 29.69 in 3.0 mi NNW 10.4 mph - N/A   Overcast
8:55 AM 35.6 °F 28.6 °F 32.0 °F 87% 29.71 in 2.5 mi NNW 9.2 mph - N/A   Overcast
9:15 AM 35.6 °F 29.2 °F 32.0 °F 87% 29.72 in 2.0 mi North 8.1 mph - N/A Rain Rain
9:35 AM 35.6 °F 28.6 °F 32.0 °F 87% 29.72 in 1.8 mi North 9.2 mph - 0.01 in Rain Heavy Rain
9:55 AM 35.6 °F 28.6 °F 32.0 °F 87% 29.71 in 3.0 mi North 9.2 mph - 0.03 in Rain Light Rain
10:15 AM 35.6 °F 28.0 °F 32.0 °F 87% 29.69 in 7.0 mi North 10.4 mph 16.1 mph 0.02 in Rain Light Rain
10:35 AM 35.6 °F 28.0 °F 32.0 °F 87% 29.71 in 7.0 mi North 10.4 mph - 0.02 in   Light Drizzle
10:55 AM 35.6 °F 28.0 °F 32.0 °F 87% 29.73 in 5.0 mi NNW 10.4 mph - 0.02 in   Light Drizzle
11:15 AM 35.6 °F 27.5 °F 32.0 °F 87% 29.73 in 3.0 mi North 11.5 mph - N/A Rain Light Rain
11:35 AM 35.6 °F 27.5 °F 32.0 °F 87% 29.71 in 3.0 mi North 11.5 mph - N/A Rain Light Rain
11:55 AM 35.6 °F 27.1 °F 32.0 °F 87% 29.70 in 3.0 mi North 12.7 mph 18.4 mph N/A   Light Drizzle
12:15 PM 35.6 °F 27.1 °F 32.0 °F 87% 29.70 in 5.0 mi North 12.7 mph - N/A   Overcast
12:35 PM 35.6 °F 27.5 °F 32.0 °F 87% 29.70 in 10.0 mi NNE 11.5 mph 16.1 mph N/A   Overcast
12:55 PM 35.6 °F 28.0 °F 32.0 °F 87% 29.70 in 10.0 mi North 10.4 mph 17.3 mph N/A Rain Light Rain
1:15 PM 35.6 °F 28.6 °F 32.0 °F 87% 29.69 in 7.0 mi North 9.2 mph - 0.01 in Rain Light Rain
1:35 PM 35.6 °F 29.2 °F 32.0 °F 87% 29.68 in 10.0 mi North 8.1 mph - 0.01 in Rain Light Rain
1:55 PM 35.6 °F 27.5 °F 32.0 °F 87% 29.63 in 10.0 mi NNE 11.5 mph - 0.01 in Rain Rain
2:15 PM 35.6 °F 28.0 °F 32.0 °F 87% 29.64 in 10.0 mi NNE 10.4 mph - N/A   Light Drizzle
2:35 PM 35.6 °F 32.8 °F 32.0 °F 87% 29.67 in 10.0 mi North 3.5 mph - N/A Rain Light Rain
2:55 PM 35.6 °F 30.7 °F 32.0 °F 87% 29.65 in 2.5 mi North 5.8 mph - 0.03 in Rain Rain
3:15 PM 35.6 °F 28.0 °F 33.8 °F 93% 29.64 in 7.0 mi North 10.4 mph - 0.02 in Rain Light Rain
3:35 PM 35.6 °F 30.7 °F 33.8 °F 93% 29.63 in 7.0 mi NNE 5.8 mph 9.2 mph 0.04 in Rain Light Rain
3:55 PM 37.4 °F 32.1 °F 33.8 °F 87% 29.64 in 7.0 mi North 6.9 mph - 0.06 in Rain Light Rain
4:15 PM 37.4 °F 34.9 °F 33.8 °F 87% 29.65 in 5.0 mi NNW 3.5 mph - 0.02 in Rain Rain
4:35 PM 37.4 °F 32.8 °F 33.8 °F 87% 29.65 in 5.0 mi NW 5.8 mph - 0.05 in Rain Rain
4:55 PM 37.4 °F 31.4 °F 33.8 °F 87% 29.65 in 7.0 mi NNW 8.1 mph - 0.07 in Rain Light Rain
5:15 PM 35.6 °F 28.0 °F 33.8 °F 93% 29.65 in 7.0 mi NW 10.4 mph - 0.01 in Rain Light Rain
5:35 PM 35.6 °F 28.0 °F 32.0 °F 87% 29.65 in 7.0 mi NW 10.4 mph - 0.01 in Rain Light Rain
5:55 PM 35.6 °F 28.0 °F 32.0 °F 87% 29.65 in 10.0 mi NW 10.4 mph - 0.02 in Rain Light Rain
6:15 PM 35.6 °F 27.5 °F 30.2 °F 81% 29.66 in 10.0 mi NW 11.5 mph - N/A   Light Drizzle
6:35 PM 33.8 °F 25.3 °F 30.2 °F 87% 29.66 in 10.0 mi NNW 11.5 mph 17.3 mph N/A Rain Light Rain
6:55 PM 33.8 °F 25.3 °F 30.2 °F 87% 29.66 in 10.0 mi NNW 11.5 mph - N/A   Light Drizzle
7:15 PM 33.8 °F 25.3 °F 30.2 °F 87% 29.67 in 10.0 mi NW 11.5 mph - N/A   Light Drizzle
7:35 PM 33.8 °F 25.8 °F 30.2 °F 87% 29.66 in 10.0 mi NW 10.4 mph 17.3 mph N/A   Overcast
7:55 PM 33.8 °F 24.8 °F 30.2 °F 87% 29.67 in 10.0 mi NW 12.7 mph - N/A   Light Drizzle
8:15 PM 33.8 °F 26.4 °F 30.2 °F 87% 29.67 in 10.0 mi NW 9.2 mph - N/A   Overcast
8:35 PM 33.8 °F 25.8 °F 30.2 °F 87% 29.69 in 10.0 mi NW 10.4 mph - N/A   Overcast
9:15 PM 33.8 °F 26.4 °F 30.2 °F 87% 29.69 in 7.0 mi NW 9.2 mph - N/A   Light Drizzle
9:35 PM 33.8 °F 25.8 °F 30.2 °F 87% 29.69 in 4.0 mi NW 10.4 mph - N/A Rain Light Rain
9:55 PM 33.8 °F 26.4 °F 30.2 °F 87% 29.69 in 4.0 mi NNW 9.2 mph - N/A Rain Light Rain
10:15 PM 33.8 °F 25.3 °F 30.2 °F 87% 29.69 in 3.0 mi NW 11.5 mph - N/A Rain Light Rain
10:35 PM 33.8 °F 25.8 °F 30.2 °F 87% 29.70 in 3.0 mi NW 10.4 mph - N/A Rain Light Rain
10:55 PM 33.8 °F 25.8 °F 30.2 °F 87% 29.70 in 2.5 mi NW 10.4 mph - N/A   Light Drizzle
11:15 PM 33.8 °F 25.3 °F 28.4 °F 81% 29.71 in 2.5 mi NW 11.5 mph - N/A   Light Drizzle
11:35 PM 33.8 °F 26.4 °F 28.4 °F 81% 29.71 in 3.0 mi NW 9.2 mph - N/A Rain Light Rain
12:35 AM 32.0 °F 23.6 °F 28.4 °F 87% 29.70 in 1.8 mi NW 10.4 mph - N/A   Light Drizzle
12:55 AM 32.0 °F 23.0 °F 28.4 °F 87% 29.71 in 2.0 mi NW 11.5 mph 16.1 mph N/A   Light Drizzle